| time (UTC) | temp F | wind direction | speed MPH | gust MPH | rain 1hr in | rain 24hr in | rain mn in | humidity % | barometer mb |
| 20260902031004 | 75 | 307 | 5.0 | 8.0 | 0.00 | 0.00 | 0.00 | 83 | 1018.4 |
| 20260902030005 | 75 | 281 | 5.0 | 7.0 | 0.00 | 0.00 | 0.00 | 83 | 1018.4 |
| 20260902025004 | 75 | 282 | 4.0 | 6.0 | 0.00 | 0.00 | 0.00 | 82 | 1018.4 |
| 20260902024006 | 75 | 303 | 6.0 | 9.0 | 0.00 | 0.00 | 0.00 | 83 | 1018.4 |
| 20260902021007 | 76 | 287 | 3.0 | 4.0 | 0.00 | 0.00 | 0.00 | 84 | 1018.4 |
| 20260902020006 | 76 | 289 | 3.0 | 4.0 | 0.00 | 0.00 | 0.00 | 85 | 1018.4 |
| 20260902015005 | 76 | 263 | 4.0 | 6.0 | 0.00 | 0.00 | 0.00 | 86 | 1018.5 |
| 20260902013005 | 76 | 294 | 3.0 | 4.0 | 0.00 | 0.00 | 0.00 | 85 | 1018.6 |
| 20260902011004 | 76 | 296 | 3.0 | 5.0 | 0.00 | 0.00 | 0.00 | 85 | 1018.7 |
| 20260902010006 | 76 | 277 | 4.0 | 5.0 | 0.00 | 0.00 | 0.00 | 85 | 1018.8 |
| 20260902004036 | 77 | 280 | 3.0 | 5.0 | 0.00 | 0.00 | 0.00 | 84 | 1018.8 |
| 20260902003048 | 77 | 307 | 4.0 | 6.0 | 0.00 | 0.00 | 0.00 | 84 | 1018.9 |
| 20260902002006 | 77 | 288 | 3.0 | 5.0 | 0.00 | 0.00 | 0.00 | 85 | 1018.9 |
| 20260902001005 | 77 | 284 | 2.0 | 3.0 | 0.00 | 0.00 | 0.00 | 86 | 1018.8 |
| 20260902000005 | 78 | 252 | 1.0 | 2.0 | 0.00 | 0.00 | 0.00 | 85 | 1018.9 |
| 20260901235005 | 78 | 273 | 1.0 | 3.0 | 0.00 | 0.00 | 0.00 | 85 | 1018.9 |
| 20260901234005 | 78 | 298 | 1.0 | 2.0 | 0.00 | 0.00 | 0.00 | 85 | 1018.8 |
| 20260901233005 | 78 | 311 | 1.0 | 3.0 | 0.00 | 0.00 | 0.00 | 85 | 1018.8 |
| 20260901232004 | 78 | 324 | 3.0 | 4.0 | 0.00 | 0.00 | 0.00 | 85 | 1018.6 |
| 20260901231005 | 78 | 337 | 1.0 | 3.0 | 0.00 | 0.00 | 0.00 | 84 | 1018.7 |
| 20260901230006 | 78 | 333 | 2.0 | 4.0 | 0.00 | 0.00 | 0.00 | 84 | 1018.8 |
| 20260901224006 | 79 | 324 | 2.0 | 3.0 | 0.00 | 0.00 | 0.00 | 84 | 1018.7 |
| 20260901223008 | 79 | 292 | 2.0 | 3.0 | 0.00 | 0.00 | 0.00 | 84 | 1018.7 |
| 20260901222005 | 78 | 276 | 1.0 | 2.0 | 0.00 | 0.00 | 0.00 | 84 | 1018.8 |
| 20260901215004 | 79 | 258 | 1.0 | 2.0 | 0.00 | 0.00 | 0.00 | 85 | 1018.8 |
| 20260901214005 | 79 | 270 | 1.0 | 2.0 | 0.00 | 0.00 | 0.00 | 85 | 1018.7 |
| 20260901213007 | 79 | 252 | 1.0 | 2.0 | 0.00 | 0.00 | 0.00 | 85 | 1018.7 |
| 20260901212006 | 79 | 230 | 1.0 | 2.0 | 0.00 | 0.00 | 0.00 | 85 | 1018.8 |
| 20260901211005 | 79 | 259 | 1.0 | 1.0 | 0.00 | 0.00 | 0.00 | 84 | 1018.7 |
| 20260901210010 | 79 | 230 | 1.0 | 2.0 | 0.00 | 0.00 | 0.00 | 85 | 1018.7 |
| 20260901205011 | 79 | 229 | 2.0 | 3.0 | 0.00 | 0.00 | 0.00 | 85 | 1018.6 |
| 20260901203019 | 79 | 195 | 2.0 | 3.0 | 0.00 | 0.00 | 0.00 | 83 | 1018.6 |
| 20260901202004 | 79 | 180 | 2.0 | 3.0 | 0.00 | 0.00 | 0.00 | 83 | 1018.3 |
| 20260901201003 | 79 | 109 | 1.0 | 3.0 | 0.00 | 0.00 | 0.00 | 82 | 1018.3 |
| 20260901200006 | 79 | 110 | 1.0 | 3.0 | 0.00 | 0.00 | 0.00 | 82 | 1018.1 |
| 20260901195005 | 79 | 205 | 2.0 | 3.0 | 0.00 | 0.00 | 0.00 | 82 | 1018.0 |
| 20260901194005 | 80 | 221 | 2.0 | 4.0 | 0.00 | 0.00 | 0.00 | 81 | 1017.9 |
| 20260901193006 | 80 | 182 | 3.0 | 4.0 | 0.00 | 0.00 | 0.00 | 80 | 1017.7 |
| 20260901190006 | 81 | 136 | 2.0 | 4.0 | 0.00 | 0.00 | 0.00 | 77 | 1017.3 |
| 20260901185004 | 81 | 145 | 3.0 | 5.0 | 0.00 | 0.00 | 0.00 | 75 | 1017.2 |
| 20260901184006 | 81 | 153 | 2.0 | 4.0 | 0.00 | 0.00 | 0.00 | 74 | 1017.1 |
| 20260901183006 | 82 | 165 | 3.0 | 4.0 | 0.00 | 0.00 | 0.00 | 72 | 1017.1 |
| 20260901182004 | 82 | 135 | 3.0 | 6.0 | 0.00 | 0.00 | 0.00 | 71 | 1017.0 |
| 20260901181021 | 82 | 132 | 4.0 | 6.0 | 0.00 | 0.00 | 0.00 | 70 | 1016.9 |
| 20260901180006 | 82 | 133 | 5.0 | 8.0 | 0.00 | 0.00 | 0.00 | 70 | 1016.9 |
| 20260901174006 | 83 | 137 | 5.0 | 7.0 | 0.00 | 0.00 | 0.00 | 68 | 1017.0 |
| 20260901173005 | 84 | 105 | 4.0 | 7.0 | 0.00 | 0.00 | 0.00 | 67 | 1016.9 |
| 20260901172004 | 84 | 115 | 4.0 | 7.0 | 0.00 | 0.00 | 0.00 | 66 | 1016.9 |
| 20260901171004 | 84 | 109 | 4.0 | 7.0 | 0.00 | 0.00 | 0.00 | 65 | 1016.9 |
| 20260901170006 | 84 | 104 | 4.0 | 8.0 | 0.00 | 0.00 | 0.00 | 62 | 1016.9 |
| 20260901165007 | 85 | 104 | 5.0 | 8.0 | 0.00 | 0.00 | 0.00 | 61 | 1017.0 |
| 20260901164009 | 86 | 100 | 5.0 | 8.0 | 0.00 | 0.00 | 0.00 | 60 | 1017.0 |
| 20260901161005 | 85 | 135 | 5.0 | 8.0 | 0.00 | 0.00 | 0.00 | 59 | 1017.1 |
| 20260901160005 | 85 | 135 | 6.0 | 10.0 | 0.00 | 0.00 | 0.00 | 57 | 1017.3 |
| 20260901155005 | 85 | 132 | 4.0 | 8.0 | 0.00 | 0.00 | 0.00 | 55 | 1017.3 |
| 20260901154005 | 83 | 106 | 4.0 | 6.0 | 0.00 | 0.00 | 0.00 | 58 | 1017.2 |
| 20260901153005 | 82 | 131 | 6.0 | 9.0 | 0.00 | 0.00 | 0.00 | 60 | 1017.4 |
| 20260901152004 | 83 | 132 | 5.0 | 8.0 | 0.00 | 0.00 | 0.00 | 61 | 1017.8 |
| 20260901151004 | 83 | 162 | 4.0 | 6.0 | 0.00 | 0.00 | 0.00 | 61 | 1018.1 |
| 20260901150006 | 83 | 148 | 4.0 | 8.0 | 0.00 | 0.00 | 0.00 | 58 | 1018.1 |
| 20260901145005 | 83 | 97 | 6.0 | 10.0 | 0.00 | 0.00 | 0.00 | 60 | 1016.8 |
| 20260901143005 | 83 | 103 | 6.0 | 11.0 | 0.00 | 0.00 | 0.00 | 61 | 1017.5 |
| 20260901142004 | 84 | 110 | 6.0 | 9.0 | 0.00 | 0.00 | 0.00 | 61 | 1017.8 |
| 20260901141005 | 84 | 136 | 5.0 | 9.0 | 0.00 | 0.00 | 0.00 | 63 | 1018.3 |
| 20260901140005 | 85 | 117 | 7.0 | 12.0 | 0.00 | 0.00 | 0.00 | 58 | 1018.3 |
| 20260901135003 | 86 | 164 | 7.0 | 12.0 | 0.00 | 0.00 | 0.00 | 57 | 1018.4 |
| 20260901134006 | 85 | 137 | 8.0 | 13.0 | 0.00 | 0.00 | 0.00 | 61 | 1019.0 |
| 20260901133006 | 86 | 174 | 9.0 | 15.0 | 0.00 | 0.00 | 0.00 | 60 | 1019.1 |
| 20260901132006 | 86 | 157 | 5.0 | 9.0 | 0.00 | 0.00 | 0.00 | 59 | 1019.0 |
| 20260901131010 | 85 | 134 | 5.0 | 10.0 | 0.00 | 0.00 | 0.00 | 65 | 1019.1 |
| 20260901130007 | 83 | 128 | 7.0 | 11.0 | 0.00 | 0.00 | 0.00 | 68 | 1018.7 |
| 20260901125008 | 84 | 140 | 7.0 | 11.0 | 0.00 | 0.00 | 0.00 | 66 | 1018.8 |
| 20260901124006 | 85 | 148 | 7.0 | 11.0 | 0.00 | 0.00 | 0.00 | 66 | 1019.0 |
| 20260901123006 | 84 | 138 | 9.0 | 15.0 | 0.00 | 0.00 | 0.00 | 68 | 1019.0 |
| 20260901122008 | 84 | 118 | 9.0 | 14.0 | 0.00 | 0.00 | 0.00 | 67 | 1018.7 |
| 20260901115004 | 84 | 139 | 8.0 | 12.0 | 0.00 | 0.00 | 0.00 | 66 | 1019.0 |
| 20260901114008 | 84 | 143 | 14.0 | 21.0 | 0.00 | 0.00 | 0.00 | 66 | 1019.2 |
| 20260901113006 | 84 | 142 | 13.0 | 20.0 | 0.00 | 0.00 | 0.00 | 65 | 1019.2 |
| 20260901112004 | 85 | 126 | 13.0 | 21.0 | 0.00 | 0.00 | 0.00 | 64 | 1019.6 |
| 20260901105004 | 85 | 116 | 10.0 | 17.0 | 0.00 | 0.00 | 0.00 | 65 | 1019.7 |
| 20260901104004 | 86 | 93 | 10.0 | 16.0 | 0.00 | 0.00 | 0.00 | 63 | 1019.5 |
| 20260901103005 | 86 | 112 | 7.0 | 12.0 | 0.00 | 0.00 | 0.00 | 64 | 1019.5 |
| 20260901102005 | 85 | 104 | 7.0 | 11.0 | 0.00 | 0.00 | 0.00 | 65 | 1019.8 |
| 20260901101005 | 84 | 119 | 6.0 | 9.0 | 0.00 | 0.00 | 0.00 | 66 | 1019.9 |
| 20260901100006 | 84 | 108 | 5.0 | 9.0 | 0.00 | 0.00 | 0.00 | 67 | 1019.9 |
| 20260901095007 | 84 | 121 | 5.0 | 9.0 | 0.00 | 0.00 | 0.00 | 67 | 1019.9 |
| 20260901093009 | 83 | 106 | 5.0 | 9.0 | 0.00 | 0.00 | 0.00 | 70 | 1019.9 |
| 20260901092004 | 83 | 99 | 6.0 | 9.0 | 0.00 | 0.00 | 0.00 | 70 | 1019.8 |
| 20260901090005 | 83 | 69 | 4.0 | 7.0 | 0.00 | 0.00 | 0.00 | 70 | 1019.7 |
| 20260901085004 | 82 | 79 | 4.0 | 7.0 | 0.00 | 0.00 | 0.00 | 71 | 1019.7 |
| 20260901083003 | 83 | 78 | 4.0 | 8.0 | 0.00 | 0.00 | 0.00 | 69 | 1019.5 |
| 20260901082005 | 82 | 59 | 6.0 | 9.0 | 0.00 | 0.00 | 0.00 | 69 | 1019.4 |
| 20260901081005 | 82 | 65 | 6.0 | 9.0 | 0.00 | 0.00 | 0.00 | 69 | 1019.4 |
| 20260901080009 | 82 | 69 | 5.0 | 8.0 | 0.00 | 0.00 | 0.00 | 69 | 1019.3 |
| 20260901075005 | 81 | 48 | 4.0 | 7.0 | 0.00 | 0.00 | 0.00 | 70 | 1019.3 |
| 20260901074005 | 81 | 43 | 5.0 | 8.0 | 0.00 | 0.00 | 0.00 | 70 | 1019.3 |
| 20260901072005 | 80 | 49 | 4.0 | 6.0 | 0.00 | 0.00 | 0.00 | 70 | 1019.0 |
| 20260901071005 | 80 | 28 | 5.0 | 8.0 | 0.00 | 0.00 | 0.00 | 72 | 1018.7 |
| 20260901070005 | 79 | 264 | 2.0 | 3.0 | 0.00 | 0.00 | 0.00 | 73 | 1018.8 |
| 20260901065004 | 79 | 288 | 2.0 | 3.0 | 0.00 | 0.00 | 0.00 | 73 | 1018.7 |
| 20260901064005 | 79 | 313 | 2.0 | 3.0 | 0.00 | 0.00 | 0.00 | 73 | 1018.6 |
| 20260901063005 | 78 | 248 | 1.0 | 2.0 | 0.00 | 0.00 | 0.00 | 74 | 1018.2 |
| 20260901062005 | 78 | 225 | 2.0 | 3.0 | 0.00 | 0.00 | 0.00 | 76 | 1018.4 |
| 20260901061004 | 78 | 326 | 1.0 | 2.0 | 0.00 | 0.00 | 0.00 | 76 | 1018.2 |
| 20260901060005 | 78 | 321 | 2.0 | 4.0 | 0.00 | 0.00 | 0.00 | 77 | 1018.3 |
| 20260901055004 | 78 | 10 | 4.0 | 6.0 | 0.00 | 0.00 | 0.00 | 77 | 1018.2 |
| 20260901054005 | 77 | 12 | 3.0 | 5.0 | 0.00 | 0.00 | 0.00 | 78 | 1017.9 |
| 20260901053004 | 77 | 2 | 2.0 | 4.0 | 0.00 | 0.00 | 0.00 | 77 | 1017.9 |
| 20260901052004 | 77 | 20 | 3.0 | 4.0 | 0.00 | 0.00 | 0.00 | 77 | 1017.8 |
| 20260901051004 | 77 | 356 | 2.0 | 4.0 | 0.00 | 0.00 | 0.00 | 77 | 1017.9 |
| 20260901050005 | 77 | 341 | 3.0 | 4.0 | 0.00 | 0.00 | 0.00 | 77 | 1017.9 |
| 20260901045005 | 77 | 334 | 3.0 | 5.0 | 0.00 | 0.00 | 0.00 | 77 | 1017.7 |
| 20260901043025 | 77 | 318 | 3.0 | 5.0 | 0.00 | 0.00 | 0.00 | 78 | 1017.9 |
| 20260901042118 | 77 | 277 | 2.0 | 4.0 | 0.00 | 0.00 | 0.00 | 79 | 1018.2 |
| 20260901041055 | 77 | 310 | 2.0 | 4.0 | 0.00 | 0.00 | 0.00 | 80 | 1018.1 |
| 20260901035005 | 77 | 341 | 2.0 | 3.0 | 0.00 | 0.00 | 0.00 | 81 | 1017.8 |
| 20260901034005 | 77 | 338 | 2.0 | 3.0 | 0.00 | 0.00 | 0.00 | 81 | 1017.7 |
| 20260901033005 | 77 | 335 | 2.0 | 4.0 | 0.00 | 0.00 | 0.00 | 82 | 1018.1 |
| 20260901032005 | 78 | 324 | 3.0 | 5.0 | 0.00 | 0.00 | 0.00 | 82 | 1018.2 |